Total_Precipitation_Accumulation
0.00 0.00 0.00 0.00 0.08 0.23 0.13 0.44 0.34 0.05 0.02 0.00 0.00 0.00 0.00 0.01 0.04 0.07 0.00 0.00 0.00 0.00 0.00 0.02 0.02 0.00 0.00 0.00 0.09 0.36 0.12 0.01 0.00 0.01 0.05 0.02 0.02 0.03 0.01 0.01 0.05 0.06 0.04 0.06 0.06 0.08 0.09 0.10 0.08
0.00 0.00 0.00 0.11 0.20 0.65 0.16 0.36 0.46 0.18 0.01 0.00 0.00 0.00 0.00 0.01 0.00 0.00 0.00 0.01 0.00 0.00 0.00 0.00 0.01 0.02 0.04 0.03 0.10 0.09 0.03 0.04 0.08 0.03 0.05 0.04 0.02 0.07 0.05 0.06 0.10 0.07 0.08 0.05 0.07 0.07 0.10 0.15 0.07
0.00 0.00 0.13 0.35 0.58 0.47 0.49 0.51 0.48 0.10 0.00 0.00 0.00 0.00 0.00 0.00 0.00 0.00 0.00 0.01 0.00 0.01 0.00 0.00 0.01 0.02 0.03 0.04 0.05 0.05 0.05 0.02 0.04 0.05 0.04 0.05 0.07 0.14 0.08 0.06 0.10 0.06 0.10 0.14 0.08 0.09 0.14 0.06 0.09
0.00 0.03 0.19 1.05 1.61 0.56 0.33 0.27 0.06 0.01 0.00 0.00 0.00 0.00 0.00 0.00 0.00 0.00 0.00 0.00 0.01 0.02 0.00 0.00 0.01 0.00 0.03 0.04 0.06 0.06 0.03 0.02 0.04 0.05 0.06 0.07 0.07 0.05 0.05 0.04 0.04 0.05 0.04 0.03 0.06 0.19 0.12 0.14 0.09
0.00 0.23 1.39 1.17 0.89 0.84 0.53 0.14 0.01 0.04 0.02 0.01 0.00 0.00 0.00 0.00 0.00 0.00 0.00 0.01 0.00 0.00 0.00 0.00 0.08 0.03 0.03 0.02 0.05 0.06 0.02 0.04 0.06 0.12 0.09 0.06 0.04 0.02 0.03 0.02 0.03 0.02 0.07 0.04 0.05 0.12 0.20 0.18 0.05
0.09 0.49 1.14 0.26 0.20 0.68 0.51 0.07 0.12 0.13 0.02 0.00 0.00 0.00 0.01 0.00 0.00 0.00 0.00 0.01 0.00 0.00 0.00 0.00 0.12 0.08 0.08 0.06 0.03 0.03 0.01 0.05 0.09 0.05 0.02 0.02 0.02 0.02 0.01 0.01 0.02 0.03 0.11 0.16 0.06 0.08 0.12 0.12 0.04
0.11 0.62 0.60 0.19 0.09 0.38 0.31 0.16 0.28 0.13 0.04 0.03 0.01 0.00 0.01 0.00 0.00 0.00 0.00 0.03 0.02 0.00 0.00 0.00 0.01 0.09 0.08 0.09 0.05 0.02 0.01 0.03 0.03 0.04 0.02 0.01 0.01 0.01 0.01 0.03 0.04 0.05 0.12 0.15 0.19 0.19 0.15 0.07 0.03
0.12 0.58 0.84 0.28 0.18 0.36 0.23 0.12 0.10 0.08 0.06 0.05 0.03 0.02 0.00 0.00 0.00 0.00 0.05 0.04 0.03 0.01 0.00 0.00 0.00 0.02 0.02 0.03 0.07 0.01 0.01 0.02 0.03 0.04 0.06 0.06 0.00 0.00 0.01 0.04 0.02 0.04 0.09 0.23 0.25 0.21 0.06 0.06 0.03
0.17 0.63 0.74 0.75 0.13 0.08 0.02 0.19 0.28 0.09 0.04 0.07 0.02 0.00 0.00 0.00 0.00 0.01 0.01 0.04 0.01 0.02 0.00 0.01 0.01 0.03 0.04 0.02 0.02 0.02 0.03 0.11 0.14 0.11 0.15 0.16 0.03 0.00 0.05 0.05 0.03 0.07 0.09 0.07 0.13 0.12 0.08 0.12 0.05
0.65 0.74 0.69 0.44 0.11 0.07 0.03 0.15 0.11 0.04 0.03 0.02 0.01 0.00 0.00 0.00 0.00 0.00 0.00 0.01 0.00 0.02 0.01 0.09 0.01 0.01 0.00 0.00 0.03 0.04 0.10 0.23 0.13 0.09 0.05 0.06 0.02 0.00 0.00 0.00 0.01 0.01 0.11 0.13 0.06 0.10 0.26 0.11 0.02
0.49 0.35 0.15 0.11 0.06 0.08 0.07 0.08 0.01 0.02 0.14 0.04 0.00 0.00 0.00 0.00 0.00 0.00 0.00 0.00 0.00 0.00 0.00 0.00 0.00 0.02 0.01 0.00 0.01 0.03 0.02 0.01 0.01 0.01 0.01 0.01 0.00 0.00 0.00 0.00 0.00 0.02 0.11 0.31 0.13 0.03 0.02 0.04 0.01
0.38 0.11 0.13 0.09 0.02 0.14 0.19 0.04 0.05 0.12 0.29 0.05 0.00 0.00 0.00 0.00 0.00 0.00 0.00 0.00 0.00 0.02 0.00 0.00 0.01 0.09 0.03 0.00 0.00 0.00 0.00 0.00 0.00 0.00 0.00 0.01 0.00 0.01 0.01 0.11 0.20 0.07 0.10 0.34 0.17 0.04 0.01 0.01 0.00
0.18 0.08 0.11 0.07 0.04 0.04 0.12 0.14 0.13 0.20 0.83 0.04 0.01 0.00 0.00 0.00 0.00 0.00 0.00 0.00 0.00 0.00 0.00 0.00 0.00 0.02 0.00 0.00 0.00 0.00 0.00 0.00 0.00 0.00 0.00 0.00 0.03 0.06 0.06 0.16 0.11 0.14 0.13 0.15 0.12 0.16 0.03 0.05 0.00
0.08 0.04 0.03 0.03 0.08 0.02 0.11 0.26 0.09 0.11 0.33 0.05 0.01 0.00 0.00 0.00 0.00 0.00 0.00 0.00 0.00 0.00 0.00 0.00 0.00 0.00 0.00 0.00 0.00 0.00 0.00 0.00 0.00 0.00 0.00 0.00 0.01 0.04 0.14 0.09 0.11 0.22 0.07 0.06 0.12 0.24 0.01 0.00 0.00
0.02 0.04 0.00 0.01 0.06 0.01 0.11 0.63 0.34 0.03 0.06 0.02 0.01 0.00 0.00 0.00 0.00 0.00 0.00 0.00 0.00 0.00 0.00 0.00 0.00 0.00 0.00 0.00 0.00 0.00 0.00 0.00 0.00 0.00 0.01 0.02 0.02 0.03 0.14 0.12 0.25 0.11 0.07 0.11 0.15 0.07 0.00 0.00 0.00
0.00 0.04 0.03 0.01 0.02 0.02 0.19 1.10 0.52 0.07 0.03 0.03 0.00 0.00 0.00 0.00 0.00 0.00 0.00 0.00 0.00 0.00 0.00 0.00 0.00 0.00 0.00 0.00 0.01 0.01 0.12 0.07 0.01 0.00 0.00 0.00 0.00 0.04 0.06 0.04 0.03 0.05 0.13 0.06 0.11 0.03 0.00 0.00 0.00
0.00 0.01 0.00 0.00 0.01 0.03 0.15 1.21 0.98 0.14 0.13 0.07 0.01 0.00 0.00 0.00 0.00 0.00 0.00 0.00 0.00 0.00 0.00 0.00 0.00 0.00 0.00 0.00 0.00 0.01 0.02 0.02 0.01 0.00 0.00 0.00 0.00 0.02 0.04 0.02 0.02 0.04 0.08 0.01 0.01 0.01 0.01 0.00 0.00
0.00 0.01 0.03 0.02 0.05 0.04 0.19 0.14 0.08 0.03 0.19 0.11 0.02 0.01 0.00 0.00 0.00 0.00 0.00 0.00 0.00 0.00 0.00 0.00 0.00 0.00 0.00 0.00 0.01 0.01 0.02 0.03 0.00 0.00 0.00 0.02 0.01 0.01 0.04 0.02 0.01 0.07 0.01 0.00 0.01 0.00 0.01 0.00 0.00
0.00 0.00 0.03 0.04 0.10 0.16 0.15 0.10 0.02 0.00 0.11 0.09 0.02 0.02 0.00 0.00 0.00 0.00 0.00 0.00 0.00 0.00 0.00 0.00 0.00 0.00 0.00 0.00 0.00 0.00 0.00 0.01 0.00 0.00 0.00 0.03 0.03 0.01 0.03 0.03 0.01 0.02 0.01 0.03 0.01 0.01 0.00 0.00 0.00
0.00 0.00 0.01 0.02 0.13 0.59 1.08 0.54 0.43 0.03 0.07 0.09 0.09 0.03 0.01 0.00 0.00 0.00 0.00 0.00 0.00 0.00 0.00 0.00 0.00 0.00 0.00 0.00 0.00 0.00 0.00 0.00 0.00 0.01 0.01 0.00 0.00 0.01 0.03 0.02 0.03 0.04 0.07 0.01 0.01 0.03 0.01 0.00 0.00
0.00 0.00 0.00 0.00 0.02 0.36 0.66 0.74 0.64 0.11 0.10 0.36 0.16 0.05 0.01 0.00 0.00 0.00 0.00 0.00 0.00 0.00 0.00 0.00 0.00 0.00 0.00 0.00 0.00 0.02 0.03 0.01 0.01 0.01 0.00 0.00 0.00 0.01 0.07 0.02 0.04 0.04 0.02 0.02 0.01 0.00 0.00 0.00 0.00
0.00 0.00 0.00 0.00 0.00 0.01 0.02 0.19 0.17 0.10 0.05 0.69 0.34 0.20 0.05 0.01 0.00 0.00 0.01 0.00 0.00 0.00 0.00 0.00 0.00 0.00 0.00 0.01 0.00 0.01 0.01 0.01 0.00 0.03 0.01 0.01 0.00 0.04 0.06 0.01 0.04 0.04 0.05 0.09 0.01 0.00 0.00 0.00 0.00
0.00 0.00 0.00 0.00 0.00 0.00 0.00 0.07 0.34 0.34 0.24 0.22 0.18 0.72 0.23 0.03 0.01 0.01 0.01 0.00 0.00 0.00 0.00 0.00 0.00 0.00 0.00 0.00 0.04 0.02 0.00 0.07 0.06 0.08 0.10 0.15 0.08 0.08 0.09 0.06 0.05 0.09 0.09 0.06 0.01 0.01 0.00 0.00 0.01
0.00 0.00 0.00 0.00 0.00 0.00 0.00 0.01 0.24 0.54 0.42 0.42 0.08 0.64 1.08 0.50 0.10 0.05 0.01 0.00 0.00 0.00 0.00 0.00 0.00 0.00 0.00 0.00 0.02 0.02 0.04 0.06 0.07 0.08 0.09 0.03 0.08 0.03 0.05 0.04 0.09 0.08 0.10 0.10 0.03 0.04 0.00 0.01 0.01
0.00 0.00 0.00 0.00 0.00 0.00 0.00 0.00 0.05 0.48 0.49 0.39 0.34 0.46 0.92 1.06 0.39 0.11 0.08 0.01 0.01 0.00 0.00 0.00 0.00 0.00 0.00 0.00 0.00 0.01 0.03 0.05 0.10 0.09 0.05 0.07 0.22 0.03 0.04 0.07 0.09 0.04 0.05 0.07 0.06 0.04 0.01 0.04 0.03
0.00 0.00 0.00 0.00 0.00 0.00 0.00 0.00 0.00 0.01 0.05 0.06 0.16 0.12 0.15 0.23 0.58 0.16 0.04 0.02 0.04 0.00 0.00 0.00 0.00 0.00 0.00 0.00 0.00 0.01 0.02 0.02 0.02 0.01 0.02 0.01 0.06 0.06 0.16 0.09 0.04 0.04 0.05 0.02 0.05 0.05 0.03 0.04 0.02
0.00 0.00 0.00 0.00 0.00 0.00 0.00 0.01 0.01 0.00 0.04 0.04 0.03 0.09 0.12 0.11 0.10 0.13 0.10 0.06 0.09 0.03 0.00 0.00 0.00 0.00 0.00 0.00 0.00 0.00 0.00 0.01 0.01 0.01 0.02 0.01 0.02 0.07 0.19 0.17 0.05 0.02 0.02 0.04 0.09 0.03 0.07 0.06 0.02
0.00 0.00 0.00 0.00 0.00 0.00 0.05 0.05 0.06 0.04 0.05 0.04 0.02 0.02 0.05 0.11 0.37 0.46 0.31 0.27 0.20 0.10 0.01 0.00 0.00 0.00 0.01 0.01 0.01 0.01 0.03 0.01 0.01 0.01 0.00 0.01 0.03 0.03 0.22 0.29 0.07 0.05 0.01 0.01 0.04 0.04 0.04 0.07 0.04
0.00 0.00 0.00 0.00 0.00 0.00 0.07 0.27 0.10 0.05 0.00 0.01 0.01 0.01 0.04 0.09 0.36 1.29 1.29 1.02 0.70 0.34 0.10 0.12 0.06 0.02 0.00 0.00 0.01 0.01 0.00 0.01 0.01 0.00 0.00 0.00 0.01 0.04 0.07 0.29 0.16 0.12 0.03 0.02 0.05 0.04 0.05 0.09 0.03
0.00 0.00 0.00 0.00 0.00 0.00 0.01 0.22 0.13 0.10 0.01 0.00 0.01 0.02 0.02 0.06 0.15 0.55 1.22 1.93 1.94 1.31 0.49 0.38 0.40 0.19 0.11 0.03 0.00 0.00 0.00 0.00 0.00 0.00 0.00 0.00 0.00 0.00 0.01 0.04 0.19 0.12 0.06 0.07 0.09 0.02 0.03 0.09 0.04